Location: Andrest
(43.3200°N, 0.0641°E)
Time: 20:05:10
(UTC+00:00)

H-2A R/B - Pass Details

Date: 01 December 2020
Orbit: 733 x 836 km, 98.2° (Epoch: 20 January)

Event Time Altitude Azimuth Distance (km) Brightness Sun altitude
Exits shadow 17:35:28 17° 71° (ENE) 1,892 3.4 -12.5°
Maximum altitude 17:36:07 18° 62° (ENE) 1,869 3.4 -12.6°
Drops below altitude 10° 17:39:26 10° 21° (NNE) 2,332 4.1 -13.2°
Sets 17:42:25 0° 3° (N) 3,244 5.0 -13.7°
